Tabellarische Ansicht des 17.4.2022


Die einzelnen Werte des Tages

Uhrzeit Temperatur Luftdruck Luftfeuchte Wind Hi-Wind Taupunkt THW Index Wind Chill Heat Index Solar- strahlung Regen

00:00

4.8 C

1030.1 hpa

66 %

0.0 km/h aus 117

0.0 km/h aus ---

-1.0 C

4.4 C

4.8 C

4.4 C

0 W/m

0.00 mm

00:05

4.7 C

1030.1 hpa

66 %

0.0 km/h aus 115

0.0 km/h aus ---

-1.1 C

4.3 C

4.7 C

4.3 C

0 W/m

0.00 mm

00:10

4.6 C

1030.1 hpa

67 %

0.0 km/h aus 117

0.0 km/h aus ---

-1.0 C

4.2 C

4.6 C

4.2 C

0 W/m

0.00 mm

00:15

4.5 C

1030.1 hpa

66 %

0.0 km/h aus 117

0.0 km/h aus ---

-1.3 C

4.1 C

4.5 C

4.1 C

0 W/m

0.00 mm

00:20

4.3 C

1030.1 hpa

66 %

0.0 km/h aus 113

0.0 km/h aus ---

-1.5 C

3.9 C

4.3 C

3.9 C

0 W/m

0.00 mm

00:25

4.2 C

1030.1 hpa

67 %

0.0 km/h aus 115

0.0 km/h aus ---

-1.4 C

3.8 C

4.2 C

3.8 C

0 W/m

0.00 mm

00:30

4.1 C

1030.1 hpa

67 %

0.0 km/h aus 117

0.0 km/h aus ---

-1.5 C

3.7 C

4.1 C

3.7 C

0 W/m

0.00 mm

00:35

3.9 C

1030.1 hpa

67 %

0.0 km/h aus 117

0.0 km/h aus ---

-1.7 C

3.5 C

3.9 C

3.5 C

0 W/m

0.00 mm

00:40

3.8 C

1030.1 hpa

67 %

0.0 km/h aus 117

0.0 km/h aus ---

-1.8 C

3.4 C

3.8 C

3.4 C

0 W/m

0.00 mm

00:45

3.6 C

1029.8 hpa

68 %

0.0 km/h aus 116

1.6 km/h aus SSE

-1.7 C

3.3 C

3.6 C

3.3 C

0 W/m

0.00 mm

00:50

3.5 C

1029.8 hpa

69 %

0.0 km/h aus 117

0.0 km/h aus ---

-1.7 C

3.2 C

3.5 C

3.2 C

0 W/m

0.00 mm

00:55

3.4 C

1029.8 hpa

70 %

0.0 km/h aus 116

0.0 km/h aus ---

-1.6 C

3.1 C

3.4 C

3.1 C

0 W/m

0.00 mm

01:00

3.3 C

1029.8 hpa

70 %

0.0 km/h aus 114

0.0 km/h aus ---

-1.7 C

2.9 C

3.3 C

2.9 C

0 W/m

0.00 mm

01:05

3.2 C

1029.8 hpa

70 %

0.0 km/h aus 115

0.0 km/h aus ---

-1.8 C

2.8 C

3.2 C

2.8 C

0 W/m

0.00 mm

01:10

3.1 C

1029.8 hpa

71 %

0.0 km/h aus 117

0.0 km/h aus ---

-1.7 C

2.7 C

3.1 C

2.7 C

0 W/m

0.00 mm

01:15

2.9 C

1029.7 hpa

71 %

0.0 km/h aus 117

0.0 km/h aus ---

-1.8 C

2.6 C

2.9 C

2.6 C

0 W/m

0.00 mm

01:20

2.8 C

1029.7 hpa

71 %

0.0 km/h aus 118

0.0 km/h aus ---

-1.9 C

2.5 C

2.8 C

2.5 C

0 W/m

0.00 mm

01:25

2.7 C

1029.7 hpa

71 %

0.0 km/h aus 117

0.0 km/h aus ---

-2.0 C

2.4 C

2.7 C

2.4 C

0 W/m

0.00 mm

01:30

2.7 C

1029.7 hpa

73 %

0.0 km/h aus 117

0.0 km/h aus ---

-1.7 C

2.4 C

2.7 C

2.4 C

0 W/m

0.00 mm

01:35

2.6 C

1029.7 hpa

73 %

0.0 km/h aus 116

0.0 km/h aus ---

-1.7 C

2.3 C

2.6 C

2.3 C

0 W/m

0.00 mm

01:40

2.5 C

1029.7 hpa

73 %

0.0 km/h aus 114

0.0 km/h aus ---

-1.9 C

2.2 C

2.5 C

2.2 C

0 W/m

0.00 mm

01:45

2.4 C

1029.6 hpa

73 %

0.0 km/h aus 115

1.6 km/h aus SSE

-1.9 C

2.2 C

2.4 C

2.2 C

0 W/m

0.00 mm

01:50

2.4 C

1029.6 hpa

74 %

0.0 km/h aus 117

0.0 km/h aus ---

-1.8 C

2.2 C

2.4 C

2.2 C

0 W/m

0.00 mm

01:55

2.3 C

1029.6 hpa

75 %

0.0 km/h aus 117

0.0 km/h aus ---

-1.6 C

2.1 C

2.3 C

2.1 C

0 W/m

0.00 mm

02:00

2.3 C

1029.4 hpa

76 %

0.0 km/h aus 116

0.0 km/h aus ---

-1.5 C

2.1 C

2.3 C

2.1 C

0 W/m

0.00 mm

02:05

2.2 C

1029.4 hpa

75 %

0.0 km/h aus 117

0.0 km/h aus ---

-1.8 C

1.9 C

2.2 C

1.9 C

0 W/m

0.00 mm

02:10

2.1 C

1029.4 hpa

76 %

0.0 km/h aus 116

0.0 km/h aus ---

-1.7 C

1.8 C

2.1 C

1.8 C

0 W/m

0.00 mm

02:15

2.0 C

1029.4 hpa

76 %

0.0 km/h aus 116

0.0 km/h aus ---

-1.8 C

1.8 C

2.0 C

1.8 C

0 W/m

0.00 mm

02:20

1.9 C

1029.4 hpa

76 %

0.0 km/h aus 115

0.0 km/h aus ---

-1.8 C

1.7 C

1.9 C

1.7 C

0 W/m

0.00 mm

02:25

1.8 C

1029.4 hpa

76 %

0.0 km/h aus 114

0.0 km/h aus ---

-2.0 C

1.6 C

1.8 C

1.6 C

0 W/m

0.00 mm

02:30

1.7 C

1029.2 hpa

76 %

0.0 km/h aus 117

0.0 km/h aus ---

-2.1 C

1.5 C

1.7 C

1.5 C

0 W/m

0.00 mm

02:35

1.7 C

1029.2 hpa

76 %

0.0 km/h aus 116

0.0 km/h aus ---

-2.1 C

1.4 C

1.7 C

1.4 C

0 W/m

0.00 mm

02:40

1.6 C

1029.2 hpa

77 %

0.0 km/h aus 117

0.0 km/h aus ---

-2.0 C

1.4 C

1.6 C

1.4 C

0 W/m

0.00 mm

02:45

1.6 C

1029.2 hpa

77 %

0.0 km/h aus 117

0.0 km/h aus ---

-2.0 C

1.3 C

1.6 C

1.3 C

0 W/m

0.00 mm

02:50

1.5 C

1029.2 hpa

78 %

0.0 km/h aus 117

0.0 km/h aus ---

-1.9 C

1.3 C

1.5 C

1.3 C

0 W/m

0.00 mm

02:55

1.4 C

1029.2 hpa

78 %

0.0 km/h aus 117

0.0 km/h aus ---

-2.0 C

1.2 C

1.4 C

1.2 C

0 W/m

0.00 mm

03:00

1.4 C

1029.1 hpa

79 %

0.0 km/h aus 113

0.0 km/h aus ---

-1.8 C

1.2 C

1.4 C

1.2 C

0 W/m

0.00 mm

03:05

1.4 C

1029.1 hpa

80 %

0.0 km/h aus 114

0.0 km/h aus ---

-1.6 C

1.3 C

1.4 C

1.3 C

0 W/m

0.00 mm

03:10

1.4 C

1029.1 hpa

80 %

0.0 km/h aus 116

0.0 km/h aus ---

-1.7 C

1.2 C

1.4 C

1.2 C

0 W/m

0.00 mm

03:15

1.4 C

1029.1 hpa

80 %

0.0 km/h aus 117

0.0 km/h aus ---

-1.7 C

1.2 C

1.4 C

1.2 C

0 W/m

0.00 mm

03:20

1.4 C

1029.1 hpa

81 %

0.0 km/h aus 117

0.0 km/h aus ---

-1.5 C

1.2 C

1.4 C

1.2 C

0 W/m

0.00 mm

03:25

1.3 C

1029.1 hpa

81 %

0.0 km/h aus 117

0.0 km/h aus ---

-1.6 C

1.2 C

1.3 C

1.2 C

0 W/m

0.00 mm

03:30

1.3 C

1029.1 hpa

81 %

0.0 km/h aus 117

0.0 km/h aus ---

-1.6 C

1.1 C

1.3 C

1.1 C

0 W/m

0.00 mm

03:35

1.3 C

1029.1 hpa

81 %

0.0 km/h aus 118

0.0 km/h aus ---

-1.6 C

1.1 C

1.3 C

1.1 C

0 W/m

0.00 mm

03:40

1.2 C

1029.1 hpa

82 %

0.0 km/h aus 116

0.0 km/h aus ---

-1.5 C

1.1 C

1.2 C

1.1 C

0 W/m

0.00 mm

03:45

1.2 C

1028.9 hpa

82 %

0.0 km/h aus 114

0.0 km/h aus ---

-1.6 C

0.9 C

1.2 C

0.9 C

0 W/m

0.00 mm

03:50

1.1 C

1028.9 hpa

82 %

0.0 km/h aus 114

0.0 km/h aus ---

-1.6 C

0.9 C

1.1 C

0.9 C

0 W/m

0.00 mm

03:55

1.1 C

1028.9 hpa

82 %

0.0 km/h aus 117

0.0 km/h aus ---

-1.7 C

0.9 C

1.1 C

0.9 C

0 W/m

0.00 mm

04:00

1.0 C

1028.9 hpa

82 %

0.0 km/h aus 117

0.0 km/h aus ---

-1.7 C

0.8 C

1.0 C

0.8 C

0 W/m

0.00 mm

04:05

1.0 C

1028.9 hpa

83 %

0.0 km/h aus 117

0.0 km/h aus ---

-1.6 C

0.8 C

1.0 C

0.8 C

0 W/m

0.00 mm

04:10

0.9 C

1028.9 hpa

83 %

0.0 km/h aus 115

0.0 km/h aus ---

-1.6 C

0.8 C

0.9 C

0.8 C

0 W/m

0.00 mm

04:15

0.9 C

1028.6 hpa

83 %

0.0 km/h aus 117

0.0 km/h aus ---

-1.7 C

0.7 C

0.9 C

0.7 C

0 W/m

0.00 mm

04:20

0.8 C

1028.6 hpa

82 %

0.0 km/h aus 117

0.0 km/h aus ---

-1.9 C

0.7 C

0.8 C

0.7 C

0 W/m

0.00 mm

04:25

0.8 C

1028.6 hpa

82 %

0.0 km/h aus 115

0.0 km/h aus ---

-1.9 C

0.6 C

0.8 C

0.6 C

0 W/m

0.00 mm

04:30

0.7 C

1028.6 hpa

82 %

0.0 km/h aus 113

0.0 km/h aus ---

-2.0 C

0.6 C

0.7 C

0.6 C

0 W/m

0.00 mm

04:35

0.6 C

1028.6 hpa

82 %

0.0 km/h aus 114

0.0 km/h aus ---

-2.1 C

0.4 C

0.6 C

0.4 C

0 W/m

0.00 mm

04:40

0.6 C

1028.6 hpa

83 %

0.0 km/h aus 117

0.0 km/h aus ---

-2.0 C

0.4 C

0.6 C

0.4 C

0 W/m

0.00 mm

04:45

0.5 C

1028.5 hpa

83 %

0.0 km/h aus 117

0.0 km/h aus ---

-2.1 C

0.4 C

0.5 C

0.4 C

0 W/m

0.00 mm

04:50

0.5 C

1028.5 hpa

83 %

0.0 km/h aus 116

0.0 km/h aus ---

-2.1 C

0.4 C

0.5 C

0.4 C

0 W/m

0.00 mm

04:55

0.4 C

1028.5 hpa

83 %

0.0 km/h aus 117

0.0 km/h aus ---

-2.1 C

0.3 C

0.4 C

0.3 C

0 W/m

0.00 mm

05:00

0.4 C

1028.2 hpa

83 %

0.0 km/h aus 117

0.0 km/h aus ---

-2.1 C

0.3 C

0.4 C

0.3 C

0 W/m

0.00 mm

05:05

0.4 C

1028.2 hpa

83 %

0.0 km/h aus 117

0.0 km/h aus ---

-2.2 C

0.3 C

0.4 C

0.3 C

0 W/m

0.00 mm

05:10

0.3 C

1028.2 hpa

83 %

0.0 km/h aus 115

0.0 km/h aus ---

-2.2 C

0.2 C

0.3 C

0.2 C

0 W/m

0.00 mm

05:15

0.3 C

1028.1 hpa

83 %

0.0 km/h aus 114

0.0 km/h aus ---

-2.3 C

0.2 C

0.3 C

0.2 C

0 W/m

0.00 mm

05:20

0.2 C

1028.1 hpa

83 %

0.0 km/h aus 114

0.0 km/h aus ---

-2.3 C

0.1 C

0.2 C

0.1 C

0 W/m

0.00 mm

05:25

0.1 C

1028.1 hpa

83 %

0.0 km/h aus 117

0.0 km/h aus ---

-2.4 C

0.0 C

0.1 C

0.0 C

0 W/m

0.00 mm

05:30

0.1 C

1028.1 hpa

83 %

0.0 km/h aus 116

0.0 km/h aus ---

-2.5 C

-0.1 C

0.1 C

-0.1 C

0 W/m

0.00 mm

05:35

0.0 C

1028.1 hpa

84 %

0.0 km/h aus 117

0.0 km/h aus ---

-2.4 C

-0.1 C

0.0 C

-0.1 C

0 W/m

0.00 mm

05:40

-0.1 C

1028.1 hpa

84 %

0.0 km/h aus 117

0.0 km/h aus ---

-2.4 C

-0.2 C

-0.1 C

-0.2 C

0 W/m

0.00 mm

05:45

-0.1 C

1028.1 hpa

84 %

0.0 km/h aus 117

0.0 km/h aus ---

-2.5 C

-0.2 C

-0.1 C

-0.2 C

0 W/m

0.00 mm

05:50

-0.2 C

1028.1 hpa

84 %

0.0 km/h aus 117

0.0 km/h aus ---

-2.5 C

-0.3 C

-0.2 C

-0.3 C

0 W/m

0.00 mm

05:55

-0.2 C

1028.1 hpa

84 %

0.0 km/h aus 116

0.0 km/h aus ---

-2.5 C

-0.3 C

-0.2 C

-0.3 C

0 W/m

0.00 mm

06:00

-0.2 C

1028.1 hpa

84 %

0.0 km/h aus 113

0.0 km/h aus ---

-2.6 C

-0.3 C

-0.2 C

-0.3 C

0 W/m

0.00 mm

06:05

-0.3 C

1028.1 hpa

84 %

0.0 km/h aus 114

0.0 km/h aus ---

-2.7 C

-0.4 C

-0.3 C

-0.4 C

0 W/m

0.00 mm

06:10

-0.3 C

1028.1 hpa

84 %

0.0 km/h aus 117

0.0 km/h aus ---

-2.7 C

-0.4 C

-0.3 C

-0.4 C

0 W/m

0.00 mm

06:15

-0.3 C

1028.0 hpa

84 %

0.0 km/h aus 117

0.0 km/h aus ---

-2.7 C

-0.4 C

-0.3 C

-0.4 C

5 W/m

0.00 mm

06:20

-0.4 C

1028.0 hpa

84 %

0.0 km/h aus 117

0.0 km/h aus ---

-2.8 C

-0.5 C

-0.4 C

-0.5 C

7 W/m

0.00 mm

06:25

-0.4 C

1028.0 hpa

84 %

0.0 km/h aus 117

0.0 km/h aus ---

-2.8 C

-0.6 C

-0.4 C

-0.6 C

10 W/m

0.00 mm

06:30

-0.4 C

1028.0 hpa

84 %

0.0 km/h aus 116

0.0 km/h aus ---

-2.8 C

-0.6 C

-0.4 C

-0.6 C

11 W/m

0.00 mm

06:35

-0.4 C

1028.0 hpa

85 %

0.0 km/h aus 117

0.0 km/h aus ---

-2.7 C

-0.6 C

-0.4 C

-0.6 C

13 W/m

0.00 mm

06:40

-0.4 C

1028.0 hpa

85 %

0.0 km/h aus 115

0.0 km/h aus ---

-2.7 C

-0.6 C

-0.4 C

-0.6 C

15 W/m

0.00 mm

06:45

-0.4 C

1028.0 hpa

85 %

0.0 km/h aus 115

0.0 km/h aus ---

-2.7 C

-0.6 C

-0.4 C

-0.6 C

18 W/m

0.00 mm

06:50

-0.4 C

1028.0 hpa

86 %

0.0 km/h aus 115

0.0 km/h aus ---

-2.5 C

-0.6 C

-0.4 C

-0.6 C

19 W/m

0.00 mm

06:55

-0.4 C

1028.0 hpa

86 %

0.0 km/h aus 116

0.0 km/h aus ---

-2.4 C

-0.5 C

-0.4 C

-0.5 C

21 W/m

0.00 mm

07:00

-0.3 C

1028.0 hpa

86 %

0.0 km/h aus 117

0.0 km/h aus ---

-2.4 C

-0.4 C

-0.3 C

-0.4 C

22 W/m

0.00 mm

07:05

-0.3 C

1028.0 hpa

86 %

0.0 km/h aus 117

0.0 km/h aus ---

-2.3 C

-0.4 C

-0.3 C

-0.4 C

25 W/m

0.00 mm

07:10

-0.2 C

1028.0 hpa

86 %

0.0 km/h aus 117

0.0 km/h aus ---

-2.3 C

-0.3 C

-0.2 C

-0.3 C

26 W/m

0.00 mm

07:15

-0.2 C

1028.1 hpa

87 %

0.0 km/h aus 117

0.0 km/h aus ---

-2.1 C

-0.3 C

-0.2 C

-0.3 C

28 W/m

0.00 mm

07:20

-0.1 C

1028.1 hpa

87 %

0.0 km/h aus 117

0.0 km/h aus ---

-2.0 C

-0.2 C

-0.1 C

-0.2 C

65 W/m

0.00 mm

07:25

0.0 C

1028.1 hpa

87 %

0.0 km/h aus 115

0.0 km/h aus ---

-1.9 C

-0.1 C

0.0 C

-0.1 C

115 W/m

0.00 mm

07:30

0.2 C

1028.1 hpa

88 %

0.0 km/h aus 115

0.0 km/h aus ---

-1.5 C

0.1 C

0.2 C

0.1 C

130 W/m

0.00 mm

07:35

0.7 C

1028.1 hpa

89 %

0.0 km/h aus 114

0.0 km/h aus ---

-0.9 C

0.6 C

0.7 C

0.6 C

144 W/m

0.00 mm

07:40

0.8 C

1028.1 hpa

89 %

0.0 km/h aus 117

0.0 km/h aus ---

-0.8 C

0.7 C

0.8 C

0.7 C

158 W/m

0.00 mm

07:45

1.5 C

1028.1 hpa

90 %

0.0 km/h aus 117

0.0 km/h aus ---

0.0 C

1.4 C

1.5 C

1.4 C

173 W/m

0.00 mm

07:50

2.3 C

1028.1 hpa

91 %

0.0 km/h aus 116

0.0 km/h aus ---

1.0 C

2.3 C

2.3 C

2.3 C

190 W/m

0.00 mm

07:55

2.9 C

1028.1 hpa

91 %

0.0 km/h aus 118

0.0 km/h aus ---

1.6 C

2.9 C

2.9 C

2.9 C

203 W/m

0.00 mm

08:00

3.3 C

1028.1 hpa

91 %

0.0 km/h aus 115

1.6 km/h aus SSE

2.0 C

3.3 C

3.3 C

3.3 C

191 W/m

0.00 mm

08:05

3.7 C

1028.1 hpa

91 %

0.0 km/h aus 114

0.0 km/h aus ---

2.4 C

3.7 C

3.7 C

3.7 C

232 W/m

0.00 mm

08:10

3.8 C

1028.1 hpa

91 %

0.0 km/h aus 117

0.0 km/h aus ---

2.5 C

3.8 C

3.8 C

3.8 C

260 W/m

0.00 mm

08:15

4.3 C

1028.1 hpa

91 %

0.0 km/h aus 117

0.0 km/h aus ---

2.9 C

4.2 C

4.3 C

4.2 C

271 W/m

0.00 mm

08:20

4.6 C

1028.1 hpa

91 %

0.0 km/h aus 117

0.0 km/h aus ---

3.3 C

4.6 C

4.6 C

4.6 C

283 W/m

0.00 mm

08:25

4.9 C

1028.1 hpa

91 %

0.0 km/h aus 116

0.0 km/h aus ---

3.6 C

4.9 C

4.9 C

4.9 C

300 W/m

0.00 mm

08:30

5.3 C

1028.0 hpa

90 %

0.0 km/h aus 114

0.0 km/h aus ---

3.8 C

5.3 C

5.3 C

5.3 C

317 W/m

0.00 mm

08:35

5.7 C

1028.0 hpa

91 %

0.0 km/h aus 116

0.0 km/h aus ---

4.4 C

5.7 C

5.7 C

5.7 C

333 W/m

0.00 mm

08:40

6.1 C

1028.0 hpa

90 %

0.0 km/h aus 117

0.0 km/h aus ---

4.5 C

6.1 C

6.1 C

6.1 C

345 W/m

0.00 mm

08:45

6.4 C

1028.0 hpa

89 %

0.0 km/h aus 117

0.0 km/h aus ---

4.7 C

6.4 C

6.4 C

6.4 C

356 W/m

0.00 mm

08:50

6.8 C

1028.0 hpa

88 %

0.0 km/h aus 117

3.2 km/h aus SSE

5.0 C

6.8 C

6.8 C

6.8 C

369 W/m

0.00 mm

08:55

7.3 C

1028.0 hpa

86 %

0.0 km/h aus 115

4.8 km/h aus SSE

5.1 C

7.3 C

7.3 C

7.3 C

383 W/m

0.00 mm

09:00

7.8 C

1027.8 hpa

85 %

1.6 km/h aus 117

4.8 km/h aus SSE

5.5 C

7.8 C

7.8 C

7.8 C

395 W/m

0.00 mm

09:05

8.3 C

1027.8 hpa

77 %

0.0 km/h aus 117

4.8 km/h aus SSE

4.5 C

8.2 C

8.3 C

8.2 C

409 W/m

0.00 mm

09:10

8.8 C

1027.8 hpa

65 %

0.0 km/h aus 117

3.2 km/h aus SSE

2.6 C

8.4 C

8.8 C

8.4 C

422 W/m

0.00 mm

09:15

9.3 C

1027.7 hpa

60 %

0.0 km/h aus 117

3.2 km/h aus SSE

2.0 C

8.9 C

9.3 C

8.9 C

433 W/m

0.00 mm

09:20

9.6 C

1027.7 hpa

59 %

1.6 km/h aus 113

6.4 km/h aus SSE

1.9 C

9.1 C

9.6 C

9.1 C

445 W/m

0.00 mm

09:25

9.9 C

1027.7 hpa

58 %

0.0 km/h aus 115

4.8 km/h aus SSE

2.1 C

9.4 C

9.9 C

9.4 C

456 W/m

0.00 mm

09:30

10.3 C

1027.7 hpa

58 %

0.0 km/h aus 116

4.8 km/h aus SSE

2.4 C

9.8 C

10.3 C

9.8 C

467 W/m

0.00 mm

09:35

10.4 C

1027.7 hpa

57 %

0.0 km/h aus 117

4.8 km/h aus SSE

2.3 C

9.9 C

10.4 C

9.9 C

478 W/m

0.00 mm

09:40

10.6 C

1027.7 hpa

58 %

1.6 km/h aus 116

6.4 km/h aus SSE

2.7 C

10.1 C

10.6 C

10.1 C

488 W/m

0.00 mm

09:45

10.9 C

1027.6 hpa

56 %

1.6 km/h aus 114

8.0 km/h aus SSE

2.4 C

10.3 C

10.9 C

10.3 C

497 W/m

0.00 mm

09:50

10.9 C

1027.6 hpa

59 %

1.6 km/h aus 116

8.0 km/h aus SSE

3.2 C

10.4 C

10.9 C

10.4 C

492 W/m

0.00 mm

09:55

10.8 C

1027.6 hpa

56 %

4.8 km/h aus 117

11.3 km/h aus SSE

2.3 C

10.1 C

10.7 C

10.2 C

338 W/m

0.00 mm

10:00

10.4 C

1027.6 hpa

58 %

4.8 km/h aus 117

9.7 km/h aus SSE

2.5 C

9.8 C

10.3 C

9.9 C

370 W/m

0.00 mm

10:05

10.6 C

1027.6 hpa

61 %

1.6 km/h aus 116

6.4 km/h aus SSE

3.4 C

10.1 C

10.6 C

10.1 C

475 W/m

0.00 mm

10:10

10.7 C

1027.6 hpa

58 %

1.6 km/h aus 115

4.8 km/h aus SSE

2.7 C

10.1 C

10.7 C

10.1 C

368 W/m

0.00 mm

10:15

10.9 C

1027.5 hpa

60 %

1.6 km/h aus 117

8.0 km/h aus SSE

3.4 C

10.3 C

10.9 C

10.3 C

517 W/m

0.00 mm

10:20

11.3 C

1027.5 hpa

59 %

0.0 km/h aus 116

6.4 km/h aus SSE

3.5 C

10.7 C

11.3 C

10.7 C

444 W/m

0.00 mm

10:25

11.3 C

1027.5 hpa

57 %

1.6 km/h aus 117

4.8 km/h aus SSE

3.1 C

10.6 C

11.3 C

10.6 C

322 W/m

0.00 mm

10:30

11.3 C

1027.3 hpa

55 %

1.6 km/h aus 113

8.0 km/h aus SSE

2.6 C

10.6 C

11.3 C

10.6 C

424 W/m

0.00 mm

10:35

11.7 C

1027.3 hpa

54 %

3.2 km/h aus 115

9.7 km/h aus SSE

2.7 C

10.9 C

11.7 C

10.9 C

487 W/m

0.00 mm

10:40

12.2 C

1027.3 hpa

53 %

3.2 km/h aus 117

8.0 km/h aus SSE

2.9 C

11.3 C

12.2 C

11.3 C

540 W/m

0.00 mm

10:45

12.3 C

1027.1 hpa

48 %

4.8 km/h aus 116

11.3 km/h aus ESE

1.6 C

11.3 C

12.3 C

11.3 C

378 W/m

0.00 mm

10:50

11.9 C

1027.1 hpa

47 %

3.2 km/h aus 117

8.0 km/h aus E

1.0 C

10.9 C

11.9 C

10.9 C

439 W/m

0.00 mm

10:55

11.9 C

1027.1 hpa

46 %

4.8 km/h aus 114

11.3 km/h aus E

0.7 C

10.9 C

11.9 C

10.9 C

364 W/m

0.00 mm

11:00

12.0 C

1027.0 hpa

48 %

4.8 km/h aus 116

11.3 km/h aus ESE

1.3 C

11.0 C

12.0 C

11.0 C

458 W/m

0.00 mm

11:05

12.1 C

1027.0 hpa

49 %

4.8 km/h aus 117

16.1 km/h aus SSE

1.7 C

11.2 C

12.1 C

11.2 C

494 W/m

0.00 mm

11:10

12.6 C

1027.0 hpa

53 %

4.8 km/h aus 118

9.7 km/h aus SSE

3.2 C

11.7 C

12.6 C

11.7 C

593 W/m

0.00 mm

11:15

12.7 C

1026.9 hpa

52 %

3.2 km/h aus 116

8.0 km/h aus NE

3.1 C

11.8 C

12.7 C

11.8 C

591 W/m

0.00 mm

11:20

12.8 C

1026.9 hpa

50 %

1.6 km/h aus 114

6.4 km/h aus NNE

2.6 C

11.8 C

12.8 C

11.8 C

595 W/m

0.00 mm

11:25

13.2 C

1026.9 hpa

51 %

3.2 km/h aus 117

8.0 km/h aus N

3.2 C

12.2 C

13.2 C

12.2 C

580 W/m

0.00 mm

11:30

13.1 C

1026.6 hpa

51 %

1.6 km/h aus 116

6.4 km/h aus NNE

3.1 C

12.1 C

13.1 C

12.1 C

589 W/m

0.00 mm

11:35

12.9 C

1026.6 hpa

49 %

1.6 km/h aus 117

8.0 km/h aus E

2.5 C

11.9 C

12.9 C

11.9 C

609 W/m

0.00 mm

11:40

13.1 C

1026.6 hpa

47 %

4.8 km/h aus 114

9.7 km/h aus E

2.0 C

11.9 C

13.1 C

11.9 C

565 W/m

0.00 mm

11:45

12.6 C

1026.5 hpa

50 %

0.0 km/h aus 116

4.8 km/h aus SSE

2.4 C

11.6 C

12.6 C

11.6 C

567 W/m

0.00 mm

11:50

13.1 C

1026.5 hpa

50 %

1.6 km/h aus 117

4.8 km/h aus SSE

2.9 C

12.0 C

13.1 C

12.0 C

602 W/m

0.00 mm

11:55

13.3 C

1026.5 hpa

48 %

4.8 km/h aus 116

11.3 km/h aus NE

2.5 C

12.2 C

13.3 C

12.2 C

603 W/m

0.00 mm

12:00

13.4 C

1026.2 hpa

47 %

1.6 km/h aus 116

6.4 km/h aus NE

2.3 C

12.3 C

13.4 C

12.3 C

613 W/m

0.00 mm

12:05

13.7 C

1026.2 hpa

48 %

3.2 km/h aus 114

9.7 km/h aus ENE

2.9 C

12.6 C

13.7 C

12.6 C

609 W/m

0.00 mm

12:10

13.8 C

1026.2 hpa

48 %

3.2 km/h aus 118

8.0 km/h aus NNE

3.0 C

12.7 C

13.8 C

12.7 C

611 W/m

0.00 mm

12:15

14.2 C

1026.0 hpa

49 %

3.2 km/h aus 117

11.3 km/h aus S

3.6 C

13.1 C

14.2 C

13.1 C

613 W/m

0.00 mm

12:20

14.2 C

1026.0 hpa

49 %

4.8 km/h aus 117

16.1 km/h aus NE

3.6 C

13.1 C

14.2 C

13.1 C

617 W/m

0.00 mm

12:25

13.6 C

1026.0 hpa

47 %

1.6 km/h aus 115

11.3 km/h aus NNE

2.4 C

12.4 C

13.6 C

12.4 C

618 W/m

0.00 mm

12:30

13.9 C

1025.9 hpa

48 %

4.8 km/h aus 115

11.3 km/h aus SSW

3.1 C

12.8 C

13.9 C

12.8 C

623 W/m

0.00 mm

12:35

14.4 C

1025.9 hpa

48 %

1.6 km/h aus 116

8.0 km/h aus ESE

3.5 C

13.2 C

14.4 C

13.2 C

621 W/m

0.00 mm

12:40

14.2 C

1025.9 hpa

44 %

4.8 km/h aus 117

11.3 km/h aus NE

2.1 C

12.9 C

14.2 C

12.9 C

615 W/m

0.00 mm

12:45

14.6 C

1025.6 hpa

47 %

3.2 km/h aus 115

9.7 km/h aus NNE

3.4 C

13.4 C

14.6 C

13.4 C

613 W/m

0.00 mm

12:50

14.7 C

1025.6 hpa

43 %

3.2 km/h aus 114

11.3 km/h aus N

2.3 C

13.4 C

14.7 C

13.4 C

617 W/m

0.00 mm

12:55

14.7 C

1025.6 hpa

44 %

3.2 km/h aus 116

8.0 km/h aus N

2.6 C

13.4 C

14.7 C

13.4 C

617 W/m

0.00 mm

13:00

14.8 C

1025.4 hpa

44 %

1.6 km/h aus 117

8.0 km/h aus NE

2.6 C

13.4 C

14.8 C

13.4 C

621 W/m

0.00 mm

13:05

14.8 C

1025.4 hpa

42 %

3.2 km/h aus 114

11.3 km/h aus NE

2.0 C

13.4 C

14.8 C

13.4 C

616 W/m

0.00 mm

13:10

15.1 C

1025.4 hpa

42 %

4.8 km/h aus 115

11.3 km/h aus NE

2.2 C

13.7 C

15.1 C

13.7 C

616 W/m

0.00 mm

13:15

15.2 C

1025.0 hpa

42 %

3.2 km/h aus 117

11.3 km/h aus NNE

2.3 C

13.8 C

15.2 C

13.8 C

622 W/m

0.00 mm

13:20

15.1 C

1025.0 hpa

38 %

3.2 km/h aus 117

9.7 km/h aus NNE

0.8 C

13.4 C

15.1 C

13.4 C

617 W/m

0.00 mm

13:25

15.1 C

1025.0 hpa

41 %

3.2 km/h aus 117

14.5 km/h aus ESE

1.9 C

13.7 C

15.1 C

13.7 C

615 W/m

0.00 mm

13:30

15.2 C

1024.9 hpa

38 %

3.2 km/h aus 114

12.9 km/h aus S

0.9 C

13.6 C

15.2 C

13.6 C

614 W/m

0.00 mm

13:35

15.4 C

1024.9 hpa

36 %

3.2 km/h aus 117

6.4 km/h aus NNE

0.4 C

13.7 C

15.4 C

13.7 C

613 W/m

0.00 mm

13:40

15.2 C

1024.9 hpa

34 %

4.8 km/h aus 117

9.7 km/h aus E

-0.6 C

13.4 C

15.2 C

13.4 C

615 W/m

0.00 mm

13:45

15.6 C

1024.8 hpa

35 %

4.8 km/h aus 116

11.3 km/h aus ESE

0.2 C

13.9 C

15.6 C

13.9 C

621 W/m

0.00 mm

13:50

15.6 C

1024.8 hpa

37 %

6.4 km/h aus 114

16.1 km/h aus SE

0.9 C

13.9 C

15.6 C

13.9 C

624 W/m

0.00 mm

13:55

15.6 C

1024.8 hpa

35 %

6.4 km/h aus 117

17.7 km/h aus ESE

0.2 C

13.9 C

15.6 C

13.9 C

624 W/m

0.00 mm

14:00

15.5 C

1024.5 hpa

34 %

4.8 km/h aus 116

11.3 km/h aus ENE

-0.3 C

13.7 C

15.5 C

13.7 C

628 W/m

0.00 mm

14:05

15.6 C

1024.5 hpa

34 %

8.0 km/h aus 116

16.1 km/h aus E

-0.2 C

13.8 C

15.6 C

13.8 C

623 W/m

0.00 mm

14:10

15.6 C

1024.5 hpa

32 %

1.6 km/h aus 114

9.7 km/h aus E

-1.0 C

13.7 C

15.6 C

13.7 C

620 W/m

0.00 mm

14:15

15.8 C

1024.4 hpa

34 %

3.2 km/h aus 116

8.0 km/h aus ENE

-0.1 C

14.0 C

15.8 C

14.0 C

612 W/m

0.00 mm

14:20

16.1 C

1024.4 hpa

34 %

8.0 km/h aus 118

17.7 km/h aus ESE

0.2 C

14.3 C

16.1 C

14.3 C

613 W/m

0.00 mm

14:25

15.8 C

1024.4 hpa

33 %

4.8 km/h aus 115

17.7 km/h aus NE

-0.5 C

13.9 C

15.8 C

13.9 C

622 W/m

0.00 mm

14:30

15.8 C

1024.1 hpa

36 %

3.2 km/h aus 115

12.9 km/h aus SSE

0.8 C

14.1 C

15.8 C

14.1 C

624 W/m

0.00 mm

14:35

16.2 C

1024.1 hpa

37 %

8.0 km/h aus 116

22.5 km/h aus ESE

1.4 C

14.5 C

16.2 C

14.5 C

621 W/m

0.00 mm

14:40

16.2 C

1024.1 hpa

38 %

6.4 km/h aus 117

14.5 km/h aus ESE

1.8 C

14.6 C

16.2 C

14.6 C

618 W/m

0.00 mm

14:45

16.2 C

1023.9 hpa

36 %

1.6 km/h aus 116

6.4 km/h aus ENE

1.1 C

14.4 C

16.2 C

14.4 C

623 W/m

0.00 mm

14:50

16.3 C

1023.9 hpa

33 %

1.6 km/h aus 116

9.7 km/h aus NE

0.0 C

14.4 C

16.3 C

14.4 C

625 W/m

0.00 mm

14:55

15.8 C

1023.9 hpa

33 %

6.4 km/h aus 117

20.9 km/h aus ESE

-0.5 C

13.9 C

15.8 C

13.9 C

621 W/m

0.00 mm

15:00

16.2 C

1023.8 hpa

34 %

3.2 km/h aus 117

14.5 km/h aus NNE

0.3 C

14.4 C

16.2 C

14.4 C

618 W/m

0.00 mm

15:05

15.8 C

1023.8 hpa

34 %

1.6 km/h aus 113

4.8 km/h aus ENE

0.0 C

14.1 C

15.8 C

14.1 C

600 W/m

0.00 mm

15:10

15.9 C

1023.8 hpa

36 %

4.8 km/h aus 117

11.3 km/h aus ESE

0.9 C

14.2 C

15.9 C

14.2 C

601 W/m

0.00 mm

15:15

16.0 C

1023.5 hpa

35 %

9.7 km/h aus 117

19.3 km/h aus ESE

0.5 C

14.1 C

15.9 C

14.2 C

599 W/m

0.00 mm

15:20

16.1 C

1023.5 hpa

36 %

4.8 km/h aus 115

11.3 km/h aus SE

1.0 C

14.3 C

16.1 C

14.3 C

592 W/m

0.00 mm

15:25

15.8 C

1023.5 hpa

34 %

1.6 km/h aus 115

11.3 km/h aus SSE

-0.1 C

14.0 C

15.8 C

14.0 C

591 W/m

0.00 mm

15:30

15.9 C

1023.4 hpa

35 %

4.8 km/h aus 117

11.3 km/h aus SSE

0.5 C

14.2 C

15.9 C

14.2 C

584 W/m

0.00 mm

15:35

16.3 C

1023.4 hpa

33 %

3.2 km/h aus 116

16.1 km/h aus NNE

0.0 C

14.4 C

16.3 C

14.4 C

581 W/m

0.00 mm

15:40

16.4 C

1023.4 hpa

30 %

3.2 km/h aus 115

11.3 km/h aus NNE

-1.2 C

14.4 C

16.4 C

14.4 C

575 W/m

0.00 mm

15:45

16.3 C

1023.3 hpa

31 %

8.0 km/h aus 116

17.7 km/h aus E

-0.9 C

14.4 C

16.3 C

14.4 C

572 W/m

0.00 mm

15:50

16.3 C

1023.3 hpa

31 %

6.4 km/h aus 117

16.1 km/h aus ESE

-0.9 C

14.3 C

16.3 C

14.3 C

564 W/m

0.00 mm

15:55

16.0 C

1023.3 hpa

32 %

4.8 km/h aus 115

9.7 km/h aus SE

-0.7 C

14.1 C

16.0 C

14.1 C

561 W/m

0.00 mm

16:00

16.3 C

1022.9 hpa

34 %

3.2 km/h aus 115

9.7 km/h aus ESE

0.4 C

14.5 C

16.3 C

14.5 C

557 W/m

0.00 mm

16:05

16.6 C

1022.9 hpa

34 %

3.2 km/h aus 116

8.0 km/h aus NE

0.6 C

14.7 C

16.6 C

14.7 C

549 W/m

0.00 mm

16:10

16.6 C

1022.9 hpa

34 %

4.8 km/h aus 117

9.7 km/h aus ENE

0.6 C

14.7 C

16.6 C

14.7 C

544 W/m

0.00 mm

16:15

16.2 C

1022.7 hpa

31 %

4.8 km/h aus 115

9.7 km/h aus SE

-0.9 C

14.3 C

16.2 C

14.3 C

538 W/m

0.00 mm

16:20

16.1 C

1022.7 hpa

32 %

3.2 km/h aus 116

9.7 km/h aus ESE

-0.6 C

14.2 C

16.1 C

14.2 C

532 W/m

0.00 mm

16:25

16.2 C

1022.7 hpa

32 %

1.6 km/h aus 117

8.0 km/h aus SE

-0.6 C

14.3 C

16.2 C

14.3 C

523 W/m

0.00 mm

16:30

16.4 C

1022.4 hpa

33 %

3.2 km/h aus 117

11.3 km/h aus NNE

0.1 C

14.5 C

16.4 C

14.5 C

516 W/m

0.00 mm

16:35

16.7 C

1022.4 hpa

33 %

3.2 km/h aus 115

9.7 km/h aus NE

0.3 C

14.8 C

16.7 C

14.8 C

505 W/m

0.00 mm

16:40

16.4 C

1022.4 hpa

33 %

4.8 km/h aus 116

16.1 km/h aus S

0.1 C

14.5 C

16.4 C

14.5 C

496 W/m

0.00 mm

16:45

16.2 C

1022.2 hpa

29 %

4.8 km/h aus 117

14.5 km/h aus ESE

-1.9 C

14.2 C

16.2 C

14.2 C

487 W/m

0.00 mm

16:50

16.3 C

1022.2 hpa

29 %

1.6 km/h aus 117

9.7 km/h aus ESE

-1.8 C

14.2 C

16.3 C

14.2 C

479 W/m

0.00 mm

16:55

16.3 C

1022.2 hpa

28 %

4.8 km/h aus 115

9.7 km/h aus ESE

-2.2 C

14.2 C

16.3 C

14.2 C

469 W/m

0.00 mm

17:00

16.3 C

1021.9 hpa

33 %

3.2 km/h aus 115

9.7 km/h aus ESE

0.0 C

14.4 C

16.3 C

14.4 C

457 W/m

0.00 mm

17:05

16.5 C

1021.9 hpa

32 %

6.4 km/h aus 117

19.3 km/h aus S

-0.3 C

14.6 C

16.5 C

14.6 C

444 W/m

0.00 mm

17:10

16.4 C

1021.9 hpa

34 %

1.6 km/h aus 117

9.7 km/h aus NNE

0.5 C

14.6 C

16.4 C

14.6 C

430 W/m

0.00 mm

17:15

16.3 C

1021.8 hpa

34 %

4.8 km/h aus 116

11.3 km/h aus E

0.4 C

14.5 C

16.3 C

14.5 C

419 W/m

0.00 mm

17:20

16.2 C

1021.8 hpa

34 %

8.0 km/h aus 114

20.9 km/h aus NNE

0.3 C

14.4 C

16.2 C

14.4 C

408 W/m

0.00 mm

17:25

16.2 C

1021.8 hpa

33 %

8.0 km/h aus 118

20.9 km/h aus NE

-0.1 C

14.3 C

16.2 C

14.3 C

396 W/m

0.00 mm

17:30

15.8 C

1021.7 hpa

35 %

8.0 km/h aus 117

19.3 km/h aus NNE

0.4 C

14.1 C

15.8 C

14.1 C

381 W/m

0.00 mm

17:35

15.9 C

1021.7 hpa

33 %

8.0 km/h aus 117

25.7 km/h aus NNE

-0.3 C

14.1 C

15.9 C

14.1 C

368 W/m

0.00 mm

17:40

15.8 C

1021.7 hpa

34 %

6.4 km/h aus 114

14.5 km/h aus NE

0.0 C

14.1 C

15.8 C

14.1 C

355 W/m

0.00 mm

17:45

15.7 C

1021.6 hpa

35 %

6.4 km/h aus 116

16.1 km/h aus ENE

0.3 C

14.0 C

15.7 C

14.0 C

341 W/m

0.00 mm

17:50

15.7 C

1021.6 hpa

36 %

3.2 km/h aus 117

12.9 km/h aus NNE

0.7 C

14.1 C

15.7 C

14.1 C

327 W/m

0.00 mm

17:55

15.6 C

1021.6 hpa

36 %

9.7 km/h aus 117

22.5 km/h aus N

0.5 C

13.7 C

15.3 C

13.9 C

316 W/m

0.00 mm

18:00

15.4 C

1021.3 hpa

36 %

8.0 km/h aus 114

20.9 km/h aus ENE

0.4 C

13.8 C

15.4 C

13.8 C

303 W/m

0.00 mm

18:05

15.3 C

1021.3 hpa

36 %

9.7 km/h aus 115

20.9 km/h aus NNE

0.3 C

13.3 C

15.0 C

13.6 C

288 W/m

0.00 mm

18:10

15.3 C

1021.3 hpa

37 %

8.0 km/h aus 117

20.9 km/h aus NE

0.7 C

13.6 C

15.2 C

13.7 C

273 W/m

0.00 mm

18:15

15.2 C

1021.2 hpa

36 %

8.0 km/h aus 117

22.5 km/h aus NE

0.2 C

13.5 C

15.2 C

13.6 C

256 W/m

0.00 mm

18:20

15.1 C

1021.2 hpa

37 %

8.0 km/h aus 116

19.3 km/h aus S

0.5 C

13.4 C

15.0 C

13.5 C

241 W/m

0.00 mm

18:25

14.9 C

1021.2 hpa

37 %

6.4 km/h aus 115

20.9 km/h aus NNE

0.4 C

13.3 C

14.9 C

13.3 C

192 W/m

0.00 mm

18:30

14.9 C

1021.0 hpa

36 %

8.0 km/h aus 117

17.7 km/h aus NNE

-0.1 C

13.1 C

14.8 C

13.2 C

206 W/m

0.00 mm

18:35

14.8 C

1021.0 hpa

37 %

6.4 km/h aus 117

14.5 km/h aus NNE

0.2 C

13.2 C

14.8 C

13.2 C

189 W/m

0.00 mm

18:40

14.7 C

1021.0 hpa

37 %

9.7 km/h aus 117

19.3 km/h aus NE

0.1 C

12.7 C

14.3 C

13.1 C

171 W/m

0.00 mm

18:45

14.7 C

1020.9 hpa

38 %

4.8 km/h aus 113

14.5 km/h aus NE

0.5 C

13.1 C

14.7 C

13.1 C

112 W/m

0.00 mm

18:50

14.7 C

1020.9 hpa

38 %

4.8 km/h aus 116

19.3 km/h aus NE

0.5 C

13.1 C

14.7 C

13.1 C

32 W/m

0.00 mm

18:55

14.7 C

1020.9 hpa

38 %

4.8 km/h aus 117

11.3 km/h aus NNE

0.5 C

13.1 C

14.7 C

13.1 C

31 W/m

0.00 mm

19:00

14.6 C

1020.8 hpa

38 %

6.4 km/h aus 117

20.9 km/h aus NE

0.4 C

13.1 C

14.6 C

13.1 C

30 W/m

0.00 mm

19:05

14.4 C

1020.8 hpa

38 %

6.4 km/h aus 116

16.1 km/h aus NE

0.3 C

12.9 C

14.4 C

12.9 C

28 W/m

0.00 mm

19:10

14.3 C

1020.8 hpa

38 %

6.4 km/h aus 114

16.1 km/h aus ENE

0.2 C

12.8 C

14.3 C

12.8 C

27 W/m

0.00 mm

19:15

14.3 C

1020.8 hpa

39 %

4.8 km/h aus 116

12.9 km/h aus NE

0.5 C

12.8 C

14.3 C

12.8 C

26 W/m

0.00 mm

19:20

14.1 C

1020.8 hpa

39 %

8.0 km/h aus 117

19.3 km/h aus NNE

0.3 C

12.4 C

13.8 C

12.7 C

25 W/m

0.00 mm

19:25

13.9 C

1020.8 hpa

39 %

4.8 km/h aus 117

9.7 km/h aus NNE

0.2 C

12.5 C

13.9 C

12.5 C

23 W/m

0.00 mm

19:30

13.8 C

1020.8 hpa

39 %

6.4 km/h aus 115

19.3 km/h aus NE

0.1 C

12.4 C

13.8 C

12.4 C

21 W/m

0.00 mm

19:35

13.7 C

1020.8 hpa

39 %

8.0 km/h aus 116

16.1 km/h aus NNE

-0.1 C

11.9 C

13.3 C

12.2 C

20 W/m

0.00 mm

19:40

13.6 C

1020.8 hpa

39 %

6.4 km/h aus 117

11.3 km/h aus NE

-0.2 C

12.1 C

13.5 C

12.1 C

19 W/m

0.00 mm

19:45

13.4 C

1020.8 hpa

39 %

4.8 km/h aus 117

11.3 km/h aus NE

-0.3 C

12.0 C

13.4 C

12.0 C

17 W/m

0.00 mm

19:50

13.3 C

1020.8 hpa

40 %

4.8 km/h aus 117

11.3 km/h aus NE

-0.1 C

11.9 C

13.3 C

11.9 C

15 W/m

0.00 mm

19:55

13.2 C

1020.8 hpa

40 %

3.2 km/h aus 115

8.0 km/h aus E

-0.2 C

11.8 C

13.2 C

11.8 C

13 W/m

0.00 mm

20:00

13.1 C

1020.8 hpa

40 %

3.2 km/h aus 115

9.7 km/h aus ENE

-0.3 C

11.7 C

13.1 C

11.7 C

12 W/m

0.00 mm

20:05

12.9 C

1020.8 hpa

40 %

4.8 km/h aus 116

16.1 km/h aus S

-0.4 C

11.6 C

12.9 C

11.6 C

10 W/m

0.00 mm

20:10

12.8 C

1020.8 hpa

41 %

3.2 km/h aus 117

6.4 km/h aus NE

-0.2 C

11.5 C

12.8 C

11.5 C

7 W/m

0.00 mm

20:15

12.6 C

1020.8 hpa

41 %

4.8 km/h aus 117

9.7 km/h aus NNE

-0.3 C

11.4 C

12.6 C

11.4 C

6 W/m

0.00 mm

20:20

12.4 C

1020.8 hpa

41 %

1.6 km/h aus 114

6.4 km/h aus NE

-0.5 C

11.2 C

12.4 C

11.2 C

2 W/m

0.00 mm

20:25

12.3 C

1020.8 hpa

41 %

3.2 km/h aus 115

9.7 km/h aus NE

-0.6 C

11.1 C

12.3 C

11.1 C

0 W/m

0.00 mm

20:30

12.2 C

1020.8 hpa

42 %

3.2 km/h aus 117

6.4 km/h aus S

-0.4 C

11.0 C

12.2 C

11.0 C

0 W/m

0.00 mm

20:35

12.0 C

1020.8 hpa

43 %

1.6 km/h aus 116

6.4 km/h aus NE

-0.2 C

10.9 C

12.0 C

10.9 C

0 W/m

0.00 mm

20:40

11.8 C

1020.8 hpa

43 %

3.2 km/h aus 117

6.4 km/h aus NE

-0.4 C

10.7 C

11.8 C

10.7 C

0 W/m

0.00 mm

20:45

11.7 C

1021.0 hpa

43 %

1.6 km/h aus 116

8.0 km/h aus NE

-0.5 C

10.6 C

11.7 C

10.6 C

0 W/m

0.00 mm

20:50

11.6 C

1021.0 hpa

44 %

0.0 km/h aus 115

1.6 km/h aus NE

-0.3 C

10.6 C

11.6 C

10.6 C

0 W/m

0.00 mm

20:55

11.4 C

1021.0 hpa

44 %

0.0 km/h aus 116

1.6 km/h aus NE

-0.4 C

10.4 C

11.4 C

10.4 C

0 W/m

0.00 mm

21:00

11.3 C

1021.0 hpa

45 %

0.0 km/h aus 117

0.0 km/h aus ---

-0.2 C

10.3 C

11.3 C

10.3 C

0 W/m

0.00 mm

21:05

11.1 C

1021.0 hpa

45 %

0.0 km/h aus 115

0.0 km/h aus ---

-0.4 C

10.2 C

11.1 C

10.2 C

0 W/m

0.00 mm

21:10

10.9 C

1021.0 hpa

46 %

0.0 km/h aus 117

0.0 km/h aus ---

-0.3 C

10.0 C

10.9 C

10.0 C

0 W/m

0.00 mm

21:15

10.7 C

1021.0 hpa

46 %

0.0 km/h aus 115

3.2 km/h aus NE

-0.5 C

9.8 C

10.7 C

9.8 C

0 W/m

0.00 mm

21:20

10.4 C

1021.0 hpa

47 %

1.6 km/h aus 114

8.0 km/h aus NE

-0.4 C

9.7 C

10.4 C

9.7 C

0 W/m

0.00 mm

21:25

10.3 C

1021.0 hpa

47 %

0.0 km/h aus 116

1.6 km/h aus NE

-0.6 C

9.6 C

10.3 C

9.6 C

0 W/m

0.00 mm

21:30

10.2 C

1020.9 hpa

48 %

1.6 km/h aus 117

6.4 km/h aus NE

-0.4 C

9.4 C

10.2 C

9.4 C

0 W/m

0.00 mm

21:35

10.0 C

1020.9 hpa

48 %

1.6 km/h aus 117

4.8 km/h aus NE

-0.5 C

9.3 C

10.0 C

9.3 C

0 W/m

0.00 mm

21:40

9.8 C

1020.9 hpa

49 %

3.2 km/h aus 117

6.4 km/h aus NE

-0.4 C

9.2 C

9.8 C

9.2 C

0 W/m

0.00 mm

21:45

9.7 C

1020.8 hpa

49 %

1.6 km/h aus 115

6.4 km/h aus NE

-0.5 C

9.1 C

9.7 C

9.1 C

0 W/m

0.00 mm

21:50

9.6 C

1020.8 hpa

49 %

1.6 km/h aus 116

4.8 km/h aus NE

-0.6 C

8.9 C

9.6 C

8.9 C

0 W/m

0.00 mm

21:55

9.5 C

1020.8 hpa

50 %

1.6 km/h aus 115

6.4 km/h aus NE

-0.4 C

8.8 C

9.5 C

8.8 C

0 W/m

0.00 mm

22:00

9.4 C

1020.7 hpa

50 %

1.6 km/h aus 116

4.8 km/h aus NE

-0.5 C

8.7 C

9.4 C

8.7 C

0 W/m

0.00 mm

22:05

9.3 C

1020.7 hpa

50 %

1.6 km/h aus 117

3.2 km/h aus NE

-0.6 C

8.7 C

9.3 C

8.7 C

0 W/m

0.00 mm

22:10

9.3 C

1020.7 hpa

51 %

0.0 km/h aus 116

3.2 km/h aus NE

-0.4 C

8.6 C

9.3 C

8.6 C

0 W/m

0.00 mm

22:15

9.2 C

1020.7 hpa

50 %

0.0 km/h aus 113

1.6 km/h aus NE

-0.7 C

8.5 C

9.2 C

8.5 C

0 W/m

0.00 mm

22:20

9.1 C

1020.7 hpa

51 %

0.0 km/h aus 117

3.2 km/h aus NE

-0.6 C

8.4 C

9.1 C

8.4 C

0 W/m

0.00 mm

22:25

8.9 C

1020.7 hpa

51 %

0.0 km/h aus 116

3.2 km/h aus NE

-0.7 C

8.3 C

8.9 C

8.3 C

0 W/m

0.00 mm

22:30

8.8 C

1020.7 hpa

52 %

0.0 km/h aus 117

3.2 km/h aus NE

-0.5 C

8.2 C

8.8 C

8.2 C

0 W/m

0.00 mm

22:35

8.8 C

1020.7 hpa

52 %

0.0 km/h aus 117

3.2 km/h aus NE

-0.5 C

8.2 C

8.8 C

8.2 C

0 W/m

0.00 mm

22:40

8.7 C

1020.7 hpa

52 %

0.0 km/h aus 115

0.0 km/h aus ---

-0.6 C

8.1 C

8.7 C

8.1 C

0 W/m

0.00 mm

22:45

8.6 C

1020.7 hpa

53 %

0.0 km/h aus 114

3.2 km/h aus ENE

-0.4 C

8.0 C

8.6 C

8.0 C

0 W/m

0.00 mm

22:50

8.5 C

1020.7 hpa

53 %

0.0 km/h aus 118

0.0 km/h aus ---

-0.5 C

7.9 C

8.5 C

7.9 C

0 W/m

0.00 mm

22:55

8.4 C

1020.7 hpa

53 %

0.0 km/h aus 116

0.0 km/h aus ---

-0.6 C

7.8 C

8.4 C

7.8 C

0 W/m

0.00 mm

23:00

8.3 C

1020.4 hpa

53 %

0.0 km/h aus 117

0.0 km/h aus ---

-0.8 C

7.7 C

8.3 C

7.7 C

0 W/m

0.00 mm

23:05

8.2 C

1020.4 hpa

55 %

0.0 km/h aus 116

0.0 km/h aus ---

-0.3 C

7.7 C

8.2 C

7.7 C

0 W/m

0.00 mm

23:10

8.1 C

1020.4 hpa

56 %

1.6 km/h aus 115

3.2 km/h aus ENE

-0.2 C

7.6 C

8.1 C

7.6 C

0 W/m

0.00 mm

23:15

8.0 C

1020.3 hpa

56 %

1.6 km/h aus 115

4.8 km/h aus ENE

-0.3 C

7.4 C

8.0 C

7.4 C

0 W/m

0.00 mm

23:20

7.9 C

1020.3 hpa

57 %

0.0 km/h aus 116

0.0 km/h aus ---

-0.1 C

7.4 C

7.9 C

7.4 C

0 W/m

0.00 mm

23:25

7.7 C

1020.3 hpa

58 %

0.0 km/h aus 117

0.0 km/h aus ---

0.0 C

7.2 C

7.7 C

7.2 C

0 W/m

0.00 mm

23:30

7.6 C

1020.3 hpa

59 %

0.0 km/h aus 117

0.0 km/h aus ---

0.1 C

7.2 C

7.6 C

7.2 C

0 W/m

0.00 mm

23:35

7.5 C

1020.3 hpa

59 %

0.0 km/h aus 117

0.0 km/h aus ---

0.0 C

7.1 C

7.5 C

7.1 C

0 W/m

0.00 mm

23:40

7.3 C

1020.3 hpa

59 %

0.0 km/h aus 114

0.0 km/h aus ---

-0.2 C

6.9 C

7.3 C

6.9 C

0 W/m

0.00 mm

23:45

7.1 C

1020.2 hpa

58 %

0.0 km/h aus 114

0.0 km/h aus ---

-0.7 C

6.6 C

7.1 C

6.6 C

0 W/m

0.00 mm

23:50

6.8 C

1020.2 hpa

59 %

0.0 km/h aus 115

0.0 km/h aus ---

-0.6 C

6.4 C

6.8 C

6.4 C

0 W/m

0.00 mm

23:55

6.6 C

1020.2 hpa

60 %

0.0 km/h aus 118

0.0 km/h aus ---

-0.6 C

6.2 C

6.6 C

6.2 C

0 W/m

0.00 mm